Location: Unspecified
(41.1850°N, 73.2650°W)
Time: 20:49:46
(UTC+00:00)

Meteor 1-14 Rocket - Pass Details

Date: 14 December 2025
Orbit: 832 x 918 km, 81.3° (Epoch: 11 January)

Event Time Altitude Azimuth Distance (km) Brightness Sun altitude
Rises 23:35:39 0° 352° (N) 3,477 7.4 -23.7°
Reaches altitude 10° 23:38:08 10° 354° (N) 2,521 6.6 -24.2°
Maximum altitude 23:43:51 74° 79° (E) 889 4.0 -25.3°
Drops below altitude 10° 23:49:24 10° 165° (SSE) 2,453 6.5 -26.3°
Sets 23:51:47 0° 167° (SSE) 3,376 7.3 -26.7°
